| time (UTC) | temp F | wind direction | speed MPH | gust MPH | rain 1hr in | rain 24hr in | rain mn in | humidity % | barometer mb |
| 20260906165207 | 73 | 124 | 2.0 | 6.0 | 0.00 | 0.00 | 0.00 | 86 | 1018.2 |
| 20260906164708 | 73 | 117 | 2.0 | 3.0 | 0.00 | 0.00 | 0.00 | 87 | 1018.2 |
| 20260906164207 | 72 | 158 | 2.0 | 5.0 | 0.00 | 0.00 | 0.00 | 88 | 1018.2 |
| 20260906163708 | 72 | 117 | 2.0 | 3.0 | 0.00 | 0.00 | 0.00 | 88 | 1018.3 |
| 20260906163207 | 72 | 109 | 2.0 | 3.0 | 0.00 | 0.00 | 0.00 | 88 | 1018.3 |
| 20260906162707 | 72 | 67 | 2.0 | 7.0 | 0.00 | 0.00 | 0.00 | 88 | 1018.2 |
| 20260906162207 | 71 | 94 | 2.0 | 3.0 | 0.00 | 0.00 | 0.00 | 89 | 1018.3 |
| 20260906161207 | 71 | 144 | 2.0 | 3.0 | 0.00 | 0.00 | 0.00 | 89 | 1018.4 |
| 20260906160707 | 71 | 111 | 1.0 | 3.0 | 0.00 | 0.00 | 0.00 | 89 | 1018.4 |
| 20260906155707 | 71 | 113 | 2.0 | 3.0 | 0.00 | 0.00 | 0.00 | 89 | 1018.3 |
| 20260906155207 | 71 | 147 | 3.0 | 7.0 | 0.00 | 0.00 | 0.00 | 89 | 1018.2 |
| 20260906154707 | 71 | 122 | 2.0 | 5.0 | 0.00 | 0.00 | 0.00 | 90 | 1018.3 |
| 20260906154207 | 71 | 120 | 2.0 | 5.0 | 0.00 | 0.00 | 0.00 | 90 | 1018.3 |
| 20260906153707 | 71 | 128 | 2.0 | 5.0 | 0.00 | 0.00 | 0.00 | 90 | 1018.3 |
| 20260906153207 | 71 | 120 | 3.0 | 8.0 | 0.00 | 0.00 | 0.00 | 89 | 1018.3 |
| 20260906152707 | 71 | 132 | 2.0 | 3.0 | 0.00 | 0.00 | 0.00 | 89 | 1018.4 |
| 20260906151207 | 71 | 150 | 3.0 | 8.0 | 0.00 | 0.00 | 0.00 | 89 | 1018.5 |
| 20260906150708 | 71 | 115 | 2.0 | 5.0 | 0.00 | 0.00 | 0.00 | 89 | 1018.5 |
| 20260906150207 | 71 | 116 | 2.0 | 7.0 | 0.00 | 0.00 | 0.00 | 89 | 1018.4 |
| 20260906145708 | 71 | 139 | 2.0 | 3.0 | 0.00 | 0.00 | 0.00 | 89 | 1018.4 |
| 20260906145208 | 71 | 98 | 1.0 | 3.0 | 0.00 | 0.00 | 0.00 | 90 | 1018.4 |
| 20260906144708 | 71 | 108 | 2.0 | 3.0 | 0.00 | 0.00 | 0.00 | 89 | 1018.3 |
| 20260906144207 | 70 | 126 | 1.0 | 3.0 | 0.00 | 0.00 | 0.00 | 89 | 1018.4 |
| 20260906143707 | 70 | 131 | 2.0 | 3.0 | 0.00 | 0.00 | 0.00 | 89 | 1018.4 |
| 20260906143207 | 71 | 102 | 2.0 | 7.0 | 0.00 | 0.00 | 0.00 | 89 | 1018.3 |
| 20260906142707 | 71 | 136 | 3.0 | 7.0 | 0.00 | 0.00 | 0.00 | 89 | 1018.3 |
| 20260906142207 | 71 | 117 | 2.0 | 6.0 | 0.00 | 0.00 | 0.00 | 89 | 1018.2 |
| 20260906141708 | 71 | 118 | 4.0 | 10.0 | 0.00 | 0.00 | 0.00 | 90 | 1018.2 |
| 20260906141207 | 71 | 124 | 2.0 | 5.0 | 0.00 | 0.00 | 0.00 | 90 | 1018.2 |
| 20260906140707 | 71 | 129 | 2.0 | 3.0 | 0.00 | 0.00 | 0.00 | 91 | 1018.3 |
| 20260906135707 | 71 | 89 | 2.0 | 7.0 | 0.00 | 0.00 | 0.00 | 90 | 1018.3 |
| 20260906135207 | 71 | 92 | 3.0 | 7.0 | 0.00 | 0.00 | 0.00 | 91 | 1018.2 |
| 20260906134707 | 71 | 102 | 2.0 | 7.0 | 0.00 | 0.00 | 0.00 | 91 | 1018.1 |
| 20260906134207 | 70 | 81 | 2.0 | 5.0 | 0.00 | 0.00 | 0.00 | 91 | 1018.0 |
| 20260906133207 | 70 | 117 | 2.0 | 3.0 | 0.00 | 0.00 | 0.00 | 91 | 1017.9 |
| 20260906132708 | 70 | 115 | 1.0 | 3.0 | 0.00 | 0.00 | 0.00 | 92 | 1017.9 |
| 20260906132208 | 70 | 101 | 1.0 | 3.0 | 0.00 | 0.00 | 0.00 | 92 | 1017.9 |
| 20260906131708 | 70 | 127 | 2.0 | 7.0 | 0.00 | 0.00 | 0.00 | 92 | 1017.8 |
| 20260906130708 | 70 | 143 | 2.0 | 3.0 | 0.00 | 0.00 | 0.00 | 92 | 1017.8 |
| 20260906130207 | 69 | 127 | 1.0 | 7.0 | 0.00 | 0.00 | 0.00 | 92 | 1017.7 |
| 20260906125708 | 69 | 110 | 2.0 | 6.0 | 0.00 | 0.00 | 0.00 | 92 | 1017.6 |
| 20260906125208 | 69 | 91 | 2.0 | 3.0 | 0.00 | 0.00 | 0.00 | 93 | 1017.7 |
| 20260906124707 | 69 | 83 | 2.0 | 3.0 | 0.00 | 0.00 | 0.00 | 93 | 1017.7 |
| 20260906124207 | 69 | 98 | 1.0 | 3.0 | 0.00 | 0.00 | 0.00 | 93 | 1017.7 |
| 20260906123708 | 69 | 130 | 1.0 | 3.0 | 0.00 | 0.00 | 0.00 | 93 | 1017.6 |
| 20260906123207 | 69 | 96 | 2.0 | 3.0 | 0.00 | 0.00 | 0.00 | 93 | 1017.6 |
| 20260906122208 | 69 | 76 | 0.0 | 1.0 | 0.00 | 0.00 | 0.00 | 93 | 1017.7 |
| 20260906121208 | 68 | 78 | 0.0 | 2.0 | 0.00 | 0.00 | 0.00 | 93 | 1017.7 |
| 20260906120708 | 68 | 87 | 1.0 | 2.0 | 0.00 | 0.00 | 0.00 | 93 | 1017.6 |
| 20260906120208 | 69 | 87 | 0.0 | 2.0 | 0.00 | 0.00 | 0.00 | 93 | 1017.6 |
| 20260906115708 | 69 | 87 | 0.0 | 2.0 | 0.00 | 0.00 | 0.00 | 93 | 1017.6 |
| 20260906115207 | 69 | 87 | 0.0 | 3.0 | 0.00 | 0.00 | 0.00 | 93 | 1017.4 |
| 20260906114708 | 69 | 69 | 0.0 | 2.0 | 0.00 | 0.00 | 0.00 | 92 | 1017.4 |
| 20260906114207 | 69 | 82 | 0.0 | 2.0 | 0.00 | 0.00 | 0.00 | 92 | 1017.4 |
| 20260906113707 | 69 | 79 | 0.0 | 2.0 | 0.00 | 0.00 | 0.00 | 92 | 1017.4 |
| 20260906113208 | 69 | 79 | 1.0 | 2.0 | 0.00 | 0.00 | 0.00 | 92 | 1017.3 |
| 20260906112708 | 69 | 102 | 0.0 | 1.0 | 0.00 | 0.00 | 0.00 | 92 | 1017.3 |
| 20260906112208 | 69 | 75 | 0.0 | 3.0 | 0.00 | 0.00 | 0.00 | 92 | 1017.2 |
| 20260906111708 | 69 | 73 | 0.0 | 1.0 | 0.00 | 0.00 | 0.00 | 92 | 1017.1 |
| 20260906111208 | 70 | 73 | 1.0 | 3.0 | 0.00 | 0.00 | 0.00 | 92 | 1017.1 |
| 20260906110207 | 70 | 74 | 1.0 | 5.0 | 0.00 | 0.00 | 0.00 | 92 | 1017.1 |
| 20260906105707 | 70 | 89 | 2.0 | 5.0 | 0.00 | 0.00 | 0.00 | 92 | 1017.1 |
| 20260906105208 | 70 | 78 | 0.0 | 3.0 | 0.00 | 0.00 | 0.00 | 92 | 1017.1 |
| 20260906104708 | 70 | 78 | 0.0 | 1.0 | 0.00 | 0.00 | 0.00 | 91 | 1017.1 |
| 20260906104208 | 70 | 76 | 0.0 | 1.0 | 0.00 | 0.00 | 0.00 | 91 | 1017.1 |
| 20260906103707 | 70 | 95 | 0.0 | 2.0 | 0.00 | 0.00 | 0.00 | 91 | 1017.1 |
| 20260906103208 | 70 | 99 | 0.0 | 1.0 | 0.00 | 0.00 | 0.00 | 91 | 1017.1 |
| 20260906102708 | 70 | 99 | 0.0 | 1.0 | 0.00 | 0.00 | 0.00 | 91 | 1017.0 |
| 20260906102207 | 70 | 99 | 0.0 | 1.0 | 0.00 | 0.00 | 0.00 | 91 | 1017.0 |
| 20260906101207 | 70 | 82 | 0.0 | 1.0 | 0.00 | 0.00 | 0.00 | 91 | 1016.9 |
| 20260906100708 | 70 | 87 | 0.0 | 1.0 | 0.00 | 0.00 | 0.00 | 91 | 1017.0 |
| 20260906100208 | 70 | 87 | 1.0 | 2.0 | 0.00 | 0.00 | 0.00 | 91 | 1016.9 |
| 20260906095708 | 70 | 87 | 1.0 | 1.0 | 0.00 | 0.00 | 0.00 | 90 | 1016.8 |
| 20260906095208 | 71 | 87 | 0.0 | 1.0 | 0.00 | 0.00 | 0.00 | 90 | 1016.7 |
| 20260906094207 | 71 | 87 | 1.0 | 3.0 | 0.00 | 0.00 | 0.00 | 90 | 1016.3 |
| 20260906093708 | 71 | 114 | 1.0 | 2.0 | 0.00 | 0.00 | 0.00 | 90 | 1016.3 |
| 20260906093208 | 71 | 88 | 1.0 | 2.0 | 0.00 | 0.00 | 0.00 | 90 | 1016.4 |
| 20260906092708 | 71 | 87 | 0.0 | 2.0 | 0.00 | 0.00 | 0.00 | 89 | 1016.3 |
| 20260906091708 | 71 | 84 | 1.0 | 5.0 | 0.00 | 0.00 | 0.00 | 89 | 1016.1 |
| 20260906091207 | 71 | 110 | 1.0 | 3.0 | 0.00 | 0.00 | 0.00 | 89 | 1016.1 |
| 20260906090708 | 71 | 139 | 1.0 | 3.0 | 0.00 | 0.00 | 0.00 | 89 | 1016.1 |
| 20260906090207 | 71 | 120 | 2.0 | 7.0 | 0.00 | 0.00 | 0.00 | 89 | 1016.2 |
| 20260906085208 | 71 | 115 | 2.0 | 3.0 | 0.00 | 0.00 | 0.00 | 88 | 1016.3 |
| 20260906084708 | 72 | 96 | 1.0 | 3.0 | 0.00 | 0.00 | 0.00 | 88 | 1016.3 |
| 20260906084208 | 72 | 91 | 1.0 | 3.0 | 0.00 | 0.00 | 0.00 | 88 | 1016.3 |
| 20260906083208 | 72 | 99 | 1.0 | 3.0 | 0.00 | 0.00 | 0.00 | 88 | 1016.1 |
| 20260906082709 | 72 | 92 | 1.0 | 3.0 | 0.00 | 0.00 | 0.00 | 87 | 1016.0 |
| 20260906082208 | 72 | 82 | 2.0 | 6.0 | 0.00 | 0.00 | 0.00 | 87 | 1016.0 |
| 20260906081708 | 72 | 110 | 2.0 | 7.0 | 0.00 | 0.00 | 0.00 | 87 | 1016.0 |
| 20260906081208 | 72 | 97 | 2.0 | 7.0 | 0.00 | 0.00 | 0.00 | 87 | 1016.0 |
| 20260906080708 | 72 | 94 | 1.0 | 3.0 | 0.00 | 0.00 | 0.00 | 87 | 1016.0 |
| 20260906080208 | 72 | 110 | 1.0 | 3.0 | 0.00 | 0.00 | 0.00 | 87 | 1015.9 |
| 20260906075708 | 72 | 138 | 2.0 | 3.0 | 0.00 | 0.00 | 0.00 | 87 | 1015.8 |
| 20260906075208 | 72 | 130 | 1.0 | 2.0 | 0.00 | 0.00 | 0.00 | 87 | 1016.0 |
| 20260906074708 | 73 | 113 | 1.0 | 3.0 | 0.00 | 0.00 | 0.00 | 87 | 1016.0 |
| 20260906073708 | 73 | 89 | 2.0 | 6.0 | 0.00 | 0.00 | 0.00 | 87 | 1016.1 |
| 20260906073208 | 73 | 133 | 2.0 | 9.0 | 0.00 | 0.00 | 0.00 | 87 | 1016.1 |
| 20260906072709 | 73 | 84 | 2.0 | 5.0 | 0.00 | 0.00 | 0.00 | 87 | 1016.2 |
| 20260906071705 | 73 | 126 | 1.0 | 3.0 | 0.00 | 0.00 | 0.00 | 86 | 1016.3 |
| 20260906071206 | 73 | 90 | 1.0 | 3.0 | 0.00 | 0.00 | 0.00 | 86 | 1016.4 |
| 20260906070205 | 73 | 112 | 1.0 | 3.0 | 0.00 | 0.00 | 0.00 | 86 | 1016.4 |
| 20260906065705 | 73 | 120 | 1.0 | 3.0 | 0.00 | 0.00 | 0.00 | 86 | 1016.5 |
| 20260906065206 | 73 | 126 | 1.0 | 3.0 | 0.00 | 0.00 | 0.00 | 86 | 1016.7 |
| 20260906064705 | 73 | 102 | 1.0 | 2.0 | 0.00 | 0.00 | 0.00 | 86 | 1016.7 |
| 20260906064206 | 74 | 102 | 2.0 | 5.0 | 0.00 | 0.00 | 0.00 | 86 | 1016.6 |
| 20260906063205 | 74 | 81 | 3.0 | 7.0 | 0.00 | 0.00 | 0.00 | 86 | 1016.5 |
| 20260906062706 | 74 | 104 | 1.0 | 3.0 | 0.00 | 0.00 | 0.00 | 86 | 1016.5 |
| 20260906062206 | 74 | 80 | 1.0 | 3.0 | 0.00 | 0.00 | 0.00 | 86 | 1016.5 |
| 20260906061206 | 74 | 138 | 1.0 | 2.0 | 0.00 | 0.00 | 0.00 | 86 | 1016.5 |
| 20260906060705 | 74 | 138 | 1.0 | 3.0 | 0.00 | 0.00 | 0.00 | 86 | 1016.6 |
| 20260906060206 | 74 | 128 | 1.0 | 3.0 | 0.00 | 0.00 | 0.00 | 86 | 1016.6 |
| 20260906055706 | 74 | 126 | 2.0 | 3.0 | 0.00 | 0.00 | 0.00 | 86 | 1016.5 |
| 20260906055206 | 74 | 135 | 1.0 | 3.0 | 0.00 | 0.00 | 0.00 | 86 | 1016.5 |
| 20260906053706 | 74 | 121 | 1.0 | 3.0 | 0.00 | 0.00 | 0.00 | 85 | 1016.5 |
| 20260906052706 | 75 | 93 | 1.0 | 3.0 | 0.00 | 0.00 | 0.00 | 84 | 1016.5 |
| 20260906051706 | 75 | 111 | 1.0 | 3.0 | 0.00 | 0.00 | 0.00 | 83 | 1016.5 |
| 20260906051206 | 75 | 128 | 1.0 | 3.0 | 0.00 | 0.00 | 0.00 | 83 | 1016.6 |
| 20260906050706 | 75 | 112 | 2.0 | 3.0 | 0.00 | 0.00 | 0.00 | 83 | 1016.6 |
| 20260906050206 | 75 | 124 | 1.0 | 3.0 | 0.00 | 0.00 | 0.00 | 83 | 1016.7 |
| 20260906045706 | 75 | 124 | 2.0 | 3.0 | 0.00 | 0.00 | 0.00 | 83 | 1016.7 |
| 20260906045206 | 75 | 142 | 1.0 | 2.0 | 0.00 | 0.00 | 0.00 | 83 | 1016.8 |
| 20260906044206 | 75 | 148 | 1.0 | 3.0 | 0.00 | 0.00 | 0.00 | 83 | 1016.8 |
| 20260906043706 | 75 | 123 | 1.0 | 3.0 | 0.00 | 0.00 | 0.00 | 83 | 1016.8 |
| 20260906043208 | 75 | 86 | 1.0 | 3.0 | 0.00 | 0.00 | 0.00 | 83 | 1016.9 |
| 20260906042706 | 75 | 78 | 1.0 | 2.0 | 0.00 | 0.00 | 0.00 | 83 | 1016.9 |
| 20260906042206 | 75 | 92 | 1.0 | 6.0 | 0.00 | 0.00 | 0.00 | 84 | 1017.0 |
| 20260906041706 | 75 | 84 | 0.0 | 3.0 | 0.00 | 0.00 | 0.00 | 84 | 1016.9 |
| 20260906041206 | 75 | 82 | 1.0 | 2.0 | 0.00 | 0.00 | 0.00 | 84 | 1016.9 |
| 20260906040707 | 74 | 88 | 1.0 | 3.0 | 0.00 | 0.00 | 0.00 | 85 | 1017.0 |
| 20260906040206 | 74 | 96 | 1.0 | 3.0 | 0.00 | 0.00 | 0.00 | 85 | 1017.0 |
| 20260906034706 | 74 | 84 | 0.0 | 1.0 | 0.00 | 0.00 | 0.00 | 85 | 1017.0 |
| 20260906034206 | 74 | 85 | 0.0 | 0.0 | 0.00 | 0.00 | 0.00 | 84 | 1017.0 |
| 20260906033706 | 74 | 85 | 0.0 | 1.0 | 0.00 | 0.00 | 0.00 | 84 | 1017.0 |
| 20260906033206 | 74 | 85 | 1.0 | 1.0 | 0.00 | 0.00 | 0.00 | 84 | 1017.0 |
| 20260906032706 | 75 | 69 | 0.0 | 1.0 | 0.00 | 0.00 | 0.00 | 84 | 1017.0 |
| 20260906032206 | 75 | 67 | 0.0 | 2.0 | 0.00 | 0.00 | 0.00 | 84 | 1017.0 |
| 20260906031707 | 75 | 81 | 0.0 | 1.0 | 0.00 | 0.00 | 0.00 | 83 | 1016.9 |
| 20260906031206 | 75 | 81 | 0.0 | 1.0 | 0.00 | 0.00 | 0.00 | 83 | 1016.9 |
| 20260906030706 | 75 | 84 | 0.0 | 1.0 | 0.00 | 0.00 | 0.00 | 83 | 1016.9 |
| 20260906025706 | 75 | 53 | 0.0 | 1.0 | 0.00 | 0.00 | 0.00 | 83 | 1017.0 |
| 20260906025206 | 75 | 86 | 0.0 | 1.0 | 0.00 | 0.00 | 0.00 | 83 | 1017.0 |
| 20260906024706 | 75 | 41 | 0.0 | 1.0 | 0.00 | 0.00 | 0.00 | 83 | 1017.0 |
| 20260906024206 | 75 | 40 | 0.0 | 0.0 | 0.00 | 0.00 | 0.00 | 83 | 1017.1 |
| 20260906023707 | 75 | 40 | 0.0 | 2.0 | 0.00 | 0.00 | 0.00 | 82 | 1017.0 |
| 20260906023206 | 75 | 198 | 0.0 | 7.0 | 0.00 | 0.00 | 0.00 | 82 | 1017.0 |
| 20260906022206 | 75 | 106 | 0.0 | 2.0 | 0.00 | 0.00 | 0.00 | 82 | 1016.6 |
| 20260906021706 | 76 | 85 | 0.0 | 1.0 | 0.00 | 0.00 | 0.00 | 82 | 1016.6 |
| 20260906021206 | 76 | 86 | 0.0 | 1.0 | 0.00 | 0.00 | 0.00 | 82 | 1016.4 |
| 20260906020206 | 76 | 104 | 0.0 | 1.0 | 0.00 | 0.00 | 0.00 | 81 | 1016.2 |
| 20260906015706 | 76 | 138 | 0.0 | 2.0 | 0.00 | 0.00 | 0.00 | 81 | 1016.0 |
| 20260906015206 | 76 | 138 | 0.0 | 2.0 | 0.00 | 0.00 | 0.00 | 81 | 1015.8 |
| 20260906014706 | 76 | 91 | 0.0 | 1.0 | 0.00 | 0.00 | 0.00 | 81 | 1015.8 |
| 20260906014207 | 77 | 162 | 1.0 | 2.0 | 0.00 | 0.00 | 0.00 | 81 | 1015.6 |
| 20260906013706 | 77 | 162 | 2.0 | 3.0 | 0.00 | 0.00 | 0.00 | 80 | 1015.4 |
| 20260906013207 | 77 | 89 | 0.0 | 2.0 | 0.00 | 0.00 | 0.00 | 80 | 1015.2 |
| 20260906012706 | 77 | 139 | 1.0 | 2.0 | 0.00 | 0.00 | 0.00 | 80 | 1015.1 |
| 20260906012206 | 77 | 139 | 2.0 | 3.0 | 0.00 | 0.00 | 0.00 | 80 | 1015.0 |
| 20260906011706 | 78 | 101 | 2.0 | 3.0 | 0.00 | 0.00 | 0.00 | 79 | 1014.9 |
| 20260906011207 | 78 | 183 | 1.0 | 9.0 | 0.00 | 0.00 | 0.00 | 79 | 1014.8 |
| 20260906010706 | 78 | 107 | 0.0 | 3.0 | 0.00 | 0.00 | 0.00 | 78 | 1014.8 |
| 20260906005707 | 79 | 131 | 2.0 | 3.0 | 0.00 | 0.00 | 0.00 | 77 | 1014.7 |
| 20260906004707 | 79 | 144 | 2.0 | 13.0 | 0.00 | 0.00 | 0.00 | 76 | 1014.7 |
| 20260906004206 | 80 | 82 | 1.0 | 6.0 | 0.00 | 0.00 | 0.00 | 75 | 1014.6 |
| 20260906003706 | 80 | 79 | 2.0 | 8.0 | 0.00 | 0.00 | 0.00 | 74 | 1014.5 |
| 20260906002206 | 82 | 123 | 3.0 | 8.0 | 0.00 | 0.00 | 0.00 | 69 | 1014.1 |
| 20260906001707 | 82 | 134 | 1.0 | 8.0 | 0.00 | 0.00 | 0.00 | 69 | 1014.1 |
| 20260906001206 | 82 | 92 | 2.0 | 7.0 | 0.00 | 0.00 | 0.00 | 68 | 1014.1 |
| 20260906000706 | 82 | 80 | 3.0 | 8.0 | 0.00 | 0.00 | 0.00 | 67 | 1014.2 |
| 20260906000207 | 83 | 121 | 2.0 | 5.0 | 0.00 | 0.00 | 0.00 | 66 | 1014.2 |
| 20260905235706 | 83 | 96 | 2.0 | 3.0 | 0.00 | 0.00 | 0.00 | 65 | 1014.1 |
| 20260905235207 | 83 | 95 | 2.0 | 7.0 | 0.00 | 0.00 | 0.00 | 65 | 1014.1 |
| 20260905234706 | 83 | 107 | 3.0 | 7.0 | 0.00 | 0.00 | 0.00 | 64 | 1014.1 |
| 20260905233707 | 84 | 101 | 1.0 | 10.0 | 0.00 | 0.00 | 0.00 | 64 | 1014.0 |
| 20260905233207 | 84 | 106 | 3.0 | 6.0 | 0.00 | 0.00 | 0.00 | 63 | 1014.0 |
| 20260905232207 | 84 | 102 | 3.0 | 9.0 | 0.00 | 0.00 | 0.00 | 62 | 1013.8 |
| 20260905231707 | 84 | 84 | 3.0 | 9.0 | 0.00 | 0.00 | 0.00 | 63 | 1013.8 |
| 20260905230707 | 84 | 76 | 1.0 | 3.0 | 0.00 | 0.00 | 0.00 | 63 | 1013.7 |
| 20260905230207 | 84 | 126 | 2.0 | 7.0 | 0.00 | 0.00 | 0.00 | 63 | 1013.5 |
| 20260905225707 | 84 | 93 | 3.0 | 8.0 | 0.00 | 0.00 | 0.00 | 63 | 1013.5 |
| 20260905225206 | 84 | 114 | 3.0 | 6.0 | 0.00 | 0.00 | 0.00 | 62 | 1013.5 |
| 20260905224707 | 84 | 97 | 3.0 | 8.0 | 0.00 | 0.00 | 0.00 | 61 | 1013.4 |
| 20260905224207 | 85 | 115 | 3.0 | 7.0 | 0.00 | 0.00 | 0.00 | 61 | 1013.3 |
| 20260905223207 | 85 | 118 | 5.0 | 8.0 | 0.00 | 0.00 | 0.00 | 62 | 1013.3 |
| 20260905222206 | 85 | 132 | 3.0 | 7.0 | 0.00 | 0.00 | 0.00 | 63 | 1013.4 |
| 20260905221708 | 85 | 139 | 2.0 | 5.0 | 0.00 | 0.00 | 0.00 | 62 | 1013.5 |
| 20260905221206 | 85 | 93 | 3.0 | 9.0 | 0.00 | 0.00 | 0.00 | 61 | 1013.6 |
| 20260905220708 | 85 | 82 | 2.0 | 8.0 | 0.00 | 0.00 | 0.00 | 62 | 1013.8 |
| 20260905220206 | 85 | 101 | 1.0 | 7.0 | 0.00 | 0.00 | 0.00 | 63 | 1013.8 |
| 20260905215707 | 85 | 80 | 2.0 | 9.0 | 0.00 | 0.00 | 0.00 | 62 | 1013.8 |
| 20260905215207 | 85 | 66 | 2.0 | 5.0 | 0.00 | 0.00 | 0.00 | 63 | 1013.8 |
| 20260905214707 | 84 | 57 | 1.0 | 5.0 | 0.00 | 0.00 | 0.00 | 65 | 1013.9 |
| 20260905214207 | 84 | 67 | 2.0 | 3.0 | 0.00 | 0.00 | 0.00 | 65 | 1014.0 |
| 20260905213707 | 84 | 81 | 3.0 | 8.0 | 0.00 | 0.00 | 0.00 | 64 | 1013.9 |
| 20260905213207 | 84 | 122 | 5.0 | 10.0 | 0.00 | 0.00 | 0.00 | 64 | 1013.9 |
| 20260905212707 | 84 | 94 | 2.0 | 8.0 | 0.00 | 0.00 | 0.00 | 64 | 1013.9 |
| 20260905211707 | 84 | 65 | 3.0 | 6.0 | 0.00 | 0.00 | 0.00 | 64 | 1013.9 |
| 20260905210707 | 84 | 32 | 3.0 | 9.0 | 0.00 | 0.00 | 0.00 | 65 | 1013.8 |
| 20260905210207 | 84 | 61 | 2.0 | 7.0 | 0.00 | 0.00 | 0.00 | 66 | 1013.9 |
| 20260905205707 | 84 | 117 | 5.0 | 10.0 | 0.00 | 0.00 | 0.00 | 66 | 1013.9 |
| 20260905205207 | 84 | 101 | 5.0 | 10.0 | 0.00 | 0.00 | 0.00 | 67 | 1013.9 |
| 20260905204707 | 84 | 54 | 3.0 | 8.0 | 0.00 | 0.00 | 0.00 | 67 | 1014.1 |
| 20260905204207 | 83 | 90 | 2.0 | 7.0 | 0.00 | 0.00 | 0.00 | 68 | 1014.2 |
| 20260905203707 | 83 | 107 | 3.0 | 7.0 | 0.00 | 0.00 | 0.00 | 68 | 1014.5 |
| 20260905203208 | 83 | 100 | 2.0 | 7.0 | 0.00 | 0.00 | 0.00 | 70 | 1014.8 |
| 20260905202206 | 82 | 126 | 2.0 | 3.0 | 0.00 | 0.00 | 0.00 | 69 | 1015.0 |
| 20260905201707 | 82 | 114 | 2.0 | 3.0 | 0.00 | 0.00 | 0.00 | 70 | 1015.0 |
| 20260905201207 | 82 | 50 | 2.0 | 3.0 | 0.00 | 0.00 | 0.00 | 71 | 1015.2 |
| 20260905200708 | 82 | 50 | 2.0 | 7.0 | 0.00 | 0.00 | 0.00 | 71 | 1015.3 |
| 20260905195708 | 81 | 116 | 2.0 | 3.0 | 0.00 | 0.00 | 0.00 | 72 | 1015.4 |
| 20260905195207 | 82 | 111 | 1.0 | 3.0 | 0.00 | 0.00 | 0.00 | 72 | 1015.5 |
| 20260905194707 | 81 | 66 | 1.0 | 3.0 | 0.00 | 0.00 | 0.00 | 73 | 1015.5 |
| 20260905194207 | 81 | 57 | 1.0 | 5.0 | 0.00 | 0.00 | 0.00 | 73 | 1015.7 |
| 20260905193707 | 81 | 43 | 2.0 | 3.0 | 0.00 | 0.00 | 0.00 | 73 | 1015.8 |
| 20260905192707 | 81 | 110 | 1.0 | 3.0 | 0.00 | 0.00 | 0.00 | 73 | 1015.8 |
| 20260905192207 | 81 | 233 | 1.0 | 2.0 | 0.00 | 0.00 | 0.00 | 75 | 1016.0 |
| 20260905191707 | 80 | 54 | 1.0 | 2.0 | 0.00 | 0.00 | 0.00 | 76 | 1016.0 |
| 20260905191207 | 80 | 5 | 1.0 | 2.0 | 0.00 | 0.00 | 0.00 | 75 | 1016.0 |
| 20260905190707 | 80 | 0 | 1.0 | 3.0 | 0.00 | 0.00 | 0.00 | 76 | 1015.9 |
| 20260905190207 | 80 | 41 | 1.0 | 3.0 | 0.00 | 0.00 | 0.00 | 75 | 1015.8 |
| 20260905185707 | 80 | 146 | 1.0 | 3.0 | 0.00 | 0.00 | 0.00 | 76 | 1015.9 |
| 20260905185207 | 79 | 5 | 1.0 | 2.0 | 0.00 | 0.00 | 0.00 | 77 | 1015.9 |
| 20260905184707 | 79 | 122 | 0.0 | 3.0 | 0.00 | 0.00 | 0.00 | 76 | 1015.9 |
| 20260905184207 | 79 | 93 | 1.0 | 3.0 | 0.00 | 0.00 | 0.00 | 76 | 1016.0 |
| 20260905183707 | 79 | 196 | 1.0 | 3.0 | 0.00 | 0.00 | 0.00 | 76 | 1016.0 |
| 20260905183207 | 79 | 138 | 2.0 | 3.0 | 0.00 | 0.00 | 0.00 | 76 | 1016.0 |
| 20260905182706 | 79 | 167 | 2.0 | 3.0 | 0.00 | 0.00 | 0.00 | 77 | 1016.1 |
| 20260905182207 | 79 | 340 | 1.0 | 2.0 | 0.00 | 0.00 | 0.00 | 77 | 1016.1 |
| 20260905181207 | 78 | 204 | 2.0 | 3.0 | 0.00 | 0.00 | 0.00 | 78 | 1016.3 |
| 20260905180708 | 78 | 111 | 1.0 | 6.0 | 0.00 | 0.00 | 0.00 | 80 | 1016.2 |
| 20260905180207 | 77 | 96 | 2.0 | 3.0 | 0.00 | 0.00 | 0.00 | 80 | 1016.3 |
| 20260905175707 | 77 | 85 | 1.0 | 3.0 | 0.00 | 0.00 | 0.00 | 80 | 1016.4 |
| 20260905175207 | 77 | 152 | 1.0 | 3.0 | 0.00 | 0.00 | 0.00 | 80 | 1016.5 |
| 20260905174707 | 77 | 57 | 2.0 | 3.0 | 0.00 | 0.00 | 0.00 | 81 | 1016.5 |
| 20260905174207 | 77 | 146 | 1.0 | 3.0 | 0.00 | 0.00 | 0.00 | 82 | 1016.6 |
| 20260905173707 | 77 | 86 | 3.0 | 7.0 | 0.00 | 0.00 | 0.00 | 83 | 1016.8 |
| 20260905173207 | 76 | 212 | 2.0 | 5.0 | 0.00 | 0.00 | 0.00 | 84 | 1016.8 |
| 20260905172707 | 75 | 155 | 3.0 | 6.0 | 0.00 | 0.00 | 0.00 | 86 | 1016.8 |
| 20260905172207 | 75 | 84 | 2.0 | 7.0 | 0.00 | 0.00 | 0.00 | 85 | 1017.0 |
| 20260905171708 | 75 | 128 | 1.0 | 2.0 | 0.00 | 0.00 | 0.00 | 86 | 1017.0 |
| 20260905171207 | 74 | 128 | 2.0 | 6.0 | 0.00 | 0.00 | 0.00 | 86 | 1017.0 |
| 20260905170708 | 74 | 107 | 2.0 | 5.0 | 0.00 | 0.00 | 0.00 | 86 | 1016.9 |
| 20260905170207 | 74 | 139 | 2.0 | 3.0 | 0.00 | 0.00 | 0.00 | 86 | 1016.9 |
| 20260905165707 | 74 | 109 | 2.0 | 6.0 | 0.00 | 0.00 | 0.00 | 87 | 1017.0 |